Lapse_Rate
5.1 4.9 4.7 4.5 4.3 4.3 4.0 4.0 4.0 3.9 3.6 3.7 3.9 4.2 4.3 3.7 3.5 3.0 2.0 1.8 1.9 1.8 1.5 1.2 1.2 0.9 1.7 4.0 3.7 5.0 4.0 3.8 4.4 5.0 4.9 5.0 5.1 5.5 6.5 6.3 5.9 6.5 6.5 4.8 4.3 3.3 4.8
4.9 4.8 4.9 4.8 4.5 4.2 4.2 4.2 4.2 4.2 4.1 4.2 4.4 5.5 4.8 3.7 3.6 3.9 3.7 2.3 1.7 2.0 1.8 1.6 1.4 1.5 3.8 5.8 4.8 3.9 3.0 4.2 5.0 5.4 5.5 5.9 6.1 5.7 5.9 6.3 6.4 5.9 5.8 5.1 4.4 4.8 5.2
4.5 4.3 4.1 4.2 4.2 4.4 4.4 4.2 4.2 4.5 4.6 4.6 4.7 4.4 4.0 3.8 3.6 3.2 3.5 3.1 2.4 1.9 2.0 2.2 1.7 1.7 2.7 3.8 4.4 2.9 2.6 4.6 5.3 5.8 6.2 6.4 6.2 5.8 5.8 6.5 5.5 5.8 6.5 6.5 6.0 5.6 6.2
3.8 3.8 3.4 4.0 4.0 4.1 4.0 4.0 4.0 4.3 4.8 4.5 3.7 2.7 2.9 3.2 3.3 3.1 2.3 2.1 2.1 2.0 1.8 1.9 1.8 2.0 3.5 3.6 2.9 2.1 3.1 4.0 4.5 4.6 6.0 6.3 6.4 6.2 6.1 5.7 5.4 6.5 6.5 6.5 6.5 6.4 5.9
3.8 4.0 3.7 3.2 2.9 3.1 2.7 3.2 2.0 2.2 2.1 1.7 1.6 1.9 2.3 2.1 2.4 2.4 2.7 2.9 2.5 2.1 2.0 2.0 2.3 3.3 4.2 4.7 4.2 4.5 3.2 5.4 5.9 6.0 5.5 7.1 6.6 5.3 5.9 6.5 6.5 6.5 6.5 6.5 6.5 6.2 6.5
4.5 4.0 3.8 3.3 2.9 2.4 2.7 2.4 2.7 2.2 1.8 2.0 2.0 1.7 1.4 1.8 2.4 2.3 2.4 2.9 2.6 2.9 2.2 3.0 4.0 5.3 3.9 5.2 5.4 5.8 3.8 5.4 6.8 5.8 6.0 5.8 3.2 6.5 6.5 6.5 6.5 6.5 6.5 6.5 6.5 6.5 6.5
4.6 4.7 5.0 4.6 4.6 4.6 4.9 4.0 3.7 3.6 3.2 2.9 2.8 2.8 3.0 2.8 2.8 2.7 3.2 3.1 4.6 4.3 4.7 4.1 5.1 4.2 4.8 4.6 4.5 5.8 6.3 6.0 6.2 5.8 6.5 6.0 6.5 6.5 6.5 6.5 6.5 6.5 6.5 6.5 6.5 6.5 6.5
5.8 5.4 5.4 5.1 5.2 4.8 4.8 4.6 3.3 3.1 2.9 3.3 2.8 2.3 2.2 2.0 1.7 2.0 3.0 5.0 5.6 5.8 5.6 4.8 4.7 5.0 3.9 4.9 5.2 4.6 6.0 5.8 5.8 6.5 6.4 6.5 6.5 6.5 6.5 6.5 6.5 6.5 6.5 6.5 6.5 6.5 6.5
5.8 5.8 5.8 5.6 5.7 5.3 5.4 4.6 4.1 3.7 3.6 3.4 3.0 2.6 2.2 2.0 2.4 2.1 3.2 5.4 5.1 5.2 5.6 5.7 4.2 5.7 5.6 5.4 6.1 5.8 5.1 5.1 6.4 6.5 6.5 6.5 6.5 6.5 6.5 6.5 6.5 6.5 6.5 6.5 6.5 6.5 6.5
6.1 6.1 5.6 5.5 5.6 5.7 5.7 5.2 4.4 4.6 4.4 4.4 4.3 4.0 3.7 3.1 3.3 2.9 4.7 6.0 5.6 5.0 6.5 6.5 6.3 5.8 6.5 6.7 6.2 5.8 6.0 5.2 6.4 6.5 6.5 6.5 6.3 6.5 6.5 6.5 6.5 6.5 6.5 6.5 6.5 6.5 6.5
6.5 6.2 5.9 5.4 5.9 5.7 5.9 5.7 5.0 4.8 4.5 4.5 4.3 4.2 4.3 4.5 4.1 5.5 6.0 5.8 5.4 5.7 6.5 6.5 6.3 6.4 5.8 6.1 6.1 6.4 6.5 6.5 6.5 6.5 6.5 6.5 6.5 6.5 6.5 6.5 6.5 6.5 6.5 6.5 6.5 6.5 6.5
6.4 6.2 5.7 5.2 5.2 5.4 5.1 5.4 5.4 5.1 4.8 4.6 4.7 4.7 4.8 4.9 4.4 5.6 5.4 5.1 6.0 6.5 6.5 6.5 6.1 6.4 6.5 6.2 6.2 6.1 6.6 7.1 5.5 6.5 6.5 6.5 6.3 6.5 6.5 6.5 6.5 6.5 6.5 6.5 6.5 6.5 6.5
6.0 6.0 6.1 5.8 5.3 5.0 5.3 6.0 5.5 5.0 5.0 4.9 4.9 4.9 4.6 5.6 5.8 5.4 5.1 5.8 6.5 6.5 6.5 6.5 6.5 6.5 6.5 6.5 6.5 6.5 6.5 6.5 6.5 6.5 6.5 6.5 6.5 6.5 6.3 6.5 6.5 6.5 6.5 6.5 6.5 6.5 6.5
6.6 6.2 6.2 6.1 5.7 5.4 5.3 4.8 5.4 5.1 4.9 5.1 5.0 5.3 4.9 5.0 5.1 5.5 5.5 6.3 6.5 6.5 6.5 6.5 6.5 6.5 6.5 6.5 6.5 6.5 6.5 6.5 6.5 6.5 6.5 6.5 6.5 6.5 6.5 6.5 6.5 6.5 6.5 6.5 6.5 6.5 6.5
6.9 6.8 6.4 6.2 6.1 5.9 5.8 5.7 5.6 4.9 5.4 5.5 5.0 5.2 5.2 3.9 5.2 5.6 5.8 6.5 6.5 6.5 6.5 6.5 6.5 6.5 6.5 6.5 6.5 6.5 6.5 6.5 6.5 6.5 6.5 6.5 6.5 6.5 6.5 6.5 6.5 6.5 6.5 6.5 6.5 6.5 6.5
7.6 7.1 6.8 6.5 6.3 6.3 6.0 6.7 6.1 5.7 5.3 5.3 5.0 5.5 5.5 5.3 6.1 6.0 6.5 6.5 6.5 6.5 6.5 6.5 6.5 6.5 6.5 6.5 6.5 6.5 6.5 6.5 6.5 6.5 6.4 6.5 6.5 6.5 6.5 6.4 6.4 6.5 6.5 6.5 6.5 6.5 6.5
7.8 7.5 7.2 6.8 6.5 6.3 6.4 6.5 6.4 6.1 6.2 5.9 5.1 6.1 6.3 5.4 7.0 6.5 6.5 6.5 6.5 6.4 6.8 6.5 6.5 6.5 6.5 6.5 6.5 6.5 6.5 6.5 6.5 6.5 6.5 6.5 6.5 6.5 6.5 6.5 6.5 6.5 6.5 6.5 6.5 6.5 6.5
7.7 7.5 7.2 7.1 7.0 6.7 6.6 6.4 6.6 6.6 6.7 6.7 6.4 6.5 5.5 6.2 6.4 6.5 6.5 6.5 6.6 6.5 6.6 6.5 6.5 6.5 6.5 6.5 6.5 6.5 6.5 6.5 5.8 6.4 6.5 6.5 6.5 6.5 6.5 6.5 6.5 6.5 6.5 6.5 6.5 6.5 6.5
8.1 7.7 7.4 7.3 7.1 6.9 6.7 6.5 6.4 6.4 6.6 5.8 5.8 5.2 5.7 6.3 6.5 6.5 6.5 6.5 6.5 6.5 6.5 6.5 6.5 6.5 6.5 6.5 6.5 6.5 6.5 6.3 5.7 6.5 6.5 6.5 6.5 6.5 6.5 6.5 6.5 6.5 6.5 6.5 6.5 6.5 6.5
8.0 8.0 7.9 7.7 7.3 7.2 7.1 6.8 6.6 6.7 6.9 5.4 4.8 6.5 5.4 6.2 6.1 6.5 6.5 6.5 6.5 6.3 6.5 6.5 6.5 6.5 6.5 6.5 6.5 6.5 6.5 6.5 6.3 6.4 6.2 6.2 6.5 6.5 6.5 6.5 6.5 6.5 6.5 6.5 6.5 6.5 6.5
8.4 8.1 7.9 7.8 7.7 7.6 7.3 7.2 7.1 6.9 7.1 6.0 5.6 6.3 5.7 6.5 6.5 6.5 6.5 6.5 6.5 6.5 6.3 6.4 6.5 6.5 6.5 6.5 6.5 6.5 6.5 6.5 6.3 6.5 6.4 6.5 6.5 6.5 6.5 6.5 6.5 6.5 6.5 6.5 6.5 6.5 6.5
9.2 8.9 8.4 8.1 7.9 7.8 7.7 7.5 7.3 7.2 7.3 6.5 6.1 6.1 6.3 6.7 6.8 6.5 6.5 6.5 6.5 6.5 6.5 6.5 6.5 6.5 6.5 6.5 6.5 6.5 6.5 6.5 6.5 6.5 6.5 6.5 6.5 6.5 6.5 6.5 6.5 6.5 6.5 6.5 6.5 6.5 6.5
9.4 9.0 8.8 8.5 8.6 8.7 8.3 7.9 7.7 7.5 7.0 4.5 6.1 5.8 6.4 6.7 6.5 6.5 6.5 6.5 6.5 6.5 6.3 6.2 6.3 6.5 6.5 6.5 5.7 5.0 4.6 5.2 6.1 6.5 6.5 6.5 6.5 6.5 6.5 6.5 6.5 6.5 6.5 6.5 6.5 6.5 6.5
8.8 9.3 9.4 9.2 9.0 8.5 8.7 8.3 8.1 7.7 7.6 5.7 4.9 6.8 6.6 6.5 6.5 6.5 6.5 6.6 6.5 6.5 6.5 6.5 6.3 6.5 6.0 6.2 5.8 6.0 5.5 5.7 5.9 6.4 6.1 6.5 6.5 6.5 6.5 6.5 6.5 6.5 6.5 6.5 6.5 6.5 6.5
8.7 9.0 9.1 9.4 9.4 9.2 8.7 8.5 8.1 7.9 7.6 6.1 6.3 6.8 6.0 6.5 6.5 6.5 6.5 6.5 6.7 6.9 6.6 6.6 6.6 6.5 6.0 6.0 6.5 6.5 6.5 6.5 6.5 6.5 6.5 6.5 6.5 6.5 6.5 6.5 6.5 6.5 6.5 6.5 6.5 6.5 6.5
9.3 9.3 9.4 9.1 9.4 9.2 8.7 8.5 8.2 7.8 7.8 6.4 6.1 6.2 5.7 5.7 6.4 6.9 6.6 6.8 6.5 6.5 6.5 6.8 6.7 6.2 7.2 6.5 6.5 6.5 6.5 6.5 6.5 6.5 6.5 6.5 6.5 6.5 6.5 6.5 6.5 6.5 6.5 6.3 6.5 6.5 6.5
9.1 8.8 8.9 8.9 8.9 8.9 8.7 8.4 8.2 7.9 7.7 6.0 5.4 7.2 6.5 6.5 5.6 7.0 6.2 6.3 6.6 6.6 6.5 6.3 6.4 6.3 6.7 6.5 6.5 6.5 6.5 6.5 6.5 6.5 6.5 6.5 6.5 6.5 6.5 6.5 6.5 6.5 6.3 5.9 6.5 6.5 5.8
8.3 8.1 8.4 8.4 8.2 8.2 8.7 8.3 8.1 8.1 7.9 6.4 6.8 6.0 6.6 6.5 6.7 6.8 6.9 6.5 6.3 6.1 6.5 5.9 6.3 6.5 6.5 6.5 6.5 6.5 6.5 6.5 6.5 6.5 6.5 6.5 6.5 6.5 6.5 6.5 6.5 5.8 6.4 6.5 6.0 4.8 5.4
8.0 8.1 8.0 7.9 7.2 7.5 8.4 8.2 8.1 8.1 7.9 7.6 6.8 6.0 6.9 6.7 6.5 6.5 6.9 7.2 7.0 7.5 5.9 5.8 5.8 6.3 6.0 6.5 6.5 6.5 6.5 6.5 6.5 6.5 6.5 6.5 6.5 6.5 6.5 6.5 6.0 5.0 6.0 5.4 4.3 4.6 4.3
Wind_Speed
24 22 22 22 21 22 21 21 20 19 18 18 17 15 12 8 6 6 4 5 8 11 13 15 17 22 7 4 9 4 3 4 3 2 3 3 4 3 2 3 4 3 2 6 7 8 4
23 22 22 23 23 23 22 21 21 22 21 21 20 17 11 7 6 6 6 7 8 11 11 12 13 14 3 6 3 5 8 5 2 2 3 3 2 1 2 2 1 3 4 7 6 5 3
18 18 18 20 23 23 22 22 23 24 23 23 20 14 11 7 5 6 8 9 10 11 11 11 8 3 1 16 1 11 5 3 2 1 0 1 2 4 2 4 3 3 5 7 5 3 6
17 13 9 11 20 20 22 23 25 23 22 19 17 15 10 7 3 4 9 11 12 12 12 9 2 2 7 5 7 7 3 5 5 5 3 3 3 1 1 3 6 3 2 3 3 3 3
18 18 15 14 11 11 11 11 15 17 16 12 11 10 9 6 3 5 11 15 15 11 7 5 3 3 10 9 3 7 7 4 4 2 3 1 3 3 2 3 4 4 5 5 7 4 1
16 20 21 20 15 16 21 23 21 20 19 17 15 9 5 3 4 9 15 13 1 4 3 2 1 3 6 6 1 4 3 4 2 3 3 4 4 2 3 4 5 5 5 4 5 1 2
17 15 14 17 18 18 15 19 17 18 19 20 19 15 8 4 2 7 9 2 2 2 1 8 4 5 3 5 3 3 2 3 3 4 4 1 3 8 10 8 4 4 4 4 3 5 2
15 16 15 13 12 13 13 12 15 16 14 14 11 8 6 1 5 7 1 3 4 3 7 10 15 14 14 2 5 3 3 6 5 7 5 1 7 11 4 6 6 5 4 6 7 6 6
6 8 15 16 16 15 15 15 12 13 12 11 11 8 4 0 5 4 2 0 4 2 4 7 7 6 10 9 9 10 8 4 6 7 9 9 6 4 7 4 5 6 6 4 7 5 3
6 4 5 10 17 17 17 18 16 14 12 11 8 7 5 0 2 3 2 4 8 3 3 7 4 7 5 6 6 9 12 8 5 11 6 8 9 10 4 5 8 7 9 8 5 3 5
8 6 5 7 13 11 19 18 18 16 13 12 13 11 8 4 1 1 3 9 5 2 4 1 4 1 4 7 1 2 5 2 10 6 7 8 5 6 12 9 8 6 7 8 5 5 1
2 3 3 2 4 3 5 13 19 18 17 15 14 12 8 2 1 3 8 7 2 4 7 4 6 6 5 4 4 4 3 2 4 3 4 5 2 4 6 2 5 1 3 5 4 4 6
8 8 3 2 2 3 7 10 20 21 20 19 17 14 8 3 1 5 2 3 3 4 2 4 5 5 5 6 5 5 6 7 6 3 8 4 15 4 4 4 0 4 4 1 2 2 8
7 9 9 9 5 2 2 6 9 11 22 19 16 15 7 3 3 5 4 4 6 3 5 3 4 2 6 4 4 7 8 6 5 3 1 5 6 9 7 22 11 10 9 5 7 5 4
5 6 7 8 9 8 7 3 3 5 8 13 19 3 3 3 8 2 4 3 5 4 4 7 3 3 4 4 3 4 6 6 9 11 9 5 6 2 4 5 12 5 9 11 3 1 1
3 4 5 6 7 8 8 6 4 3 6 13 4 4 3 9 12 3 2 8 5 3 3 4 2 5 3 6 2 5 6 2 4 10 5 4 5 4 2 3 3 6 5 2 1 8 13
3 3 3 4 4 4 5 4 4 3 4 6 2 4 2 19 3 3 6 7 4 8 1 2 1 3 2 3 2 3 4 4 6 4 7 1 4 4 4 2 1 1 3 2 3 3 7
2 3 3 3 3 3 4 6 3 3 2 2 3 2 1 10 4 3 9 6 3 3 2 5 2 5 3 2 4 4 4 4 7 5 3 3 2 3 1 4 5 4 3 3 5 5 2
3 3 3 4 4 3 4 5 6 3 2 1 2 1 2 3 9 5 5 8 0 2 4 5 5 5 4 3 1 4 5 5 8 7 2 3 3 3 1 0 5 6 8 9 3 3 1
5 5 4 4 4 4 4 3 2 4 3 3 1 2 1 2 2 14 12 9 7 4 4 3 2 1 1 2 4 5 3 4 5 4 10 3 5 1 2 2 4 1 10 8 6 2 4
7 7 7 6 6 6 5 5 2 2 2 3 2 3 1 2 4 6 13 8 12 7 5 4 4 5 3 2 4 10 10 9 10 11 4 3 3 4 4 1 2 8 11 10 7 5 4
10 10 8 8 8 8 7 7 4 3 1 2 3 2 2 2 3 7 10 9 13 15 8 7 7 9 13 12 10 6 7 8 6 5 7 10 5 6 10 15 14 12 17 16 13 14 16
13 12 11 10 10 10 10 9 7 6 5 2 1 2 1 2 3 4 6 5 16 11 7 10 12 4 8 16 7 8 7 5 5 6 7 8 5 5 7 3 3 4 15 15 12 12 6
17 17 16 14 13 13 12 11 11 9 9 3 3 2 2 3 4 6 8 8 14 16 12 11 11 6 5 5 1 0 4 5 6 6 5 6 4 4 3 2 5 3 1 8 8 6 6
19 19 19 18 17 16 15 14 13 13 10 2 2 3 3 6 5 11 15 14 11 8 11 15 8 10 4 3 2 2 3 2 3 7 6 5 4 3 3 5 6 7 5 6 7 5 5
24 23 22 21 19 17 17 16 15 16 14 3 2 3 2 1 9 13 5 7 6 5 5 6 3 4 3 2 2 6 6 5 5 3 4 4 1 5 3 3 5 13 3 3 3 5 4
26 26 25 24 21 20 18 18 17 16 17 5 3 8 3 5 4 5 6 7 5 4 3 3 5 7 6 5 4 3 5 5 6 6 5 3 1 7 5 4 7 5 7 4 4 10 3
28 28 27 25 24 22 20 19 19 17 16 7 2 8 5 3 9 6 9 14 12 6 7 2 4 1 3 6 5 4 3 6 4 4 6 6 7 4 3 2 7 6 4 7 6 2 3
31 30 29 29 28 27 21 20 21 18 16 14 2 4 8 7 4 4 14 17 13 14 6 5 4 6 4 3 3 3 2 1 4 4 2 4 7 5 8 7 5 4 3 2 2 2 4
Wind_Direction
216 218 219 220 224 229 229 231 234 234 233 236 241 244 247 235 241 266 288 312 328 330 336 344 343 342 359 360 254 316 346 354 326 360 66 27 43 4 2 303 334 181 284 306 305 309 233
213 216 220 222 224 226 229 229 233 235 232 231 234 240 231 205 234 267 297 312 321 317 330 336 343 344 29 295 262 9 17 335 0 19 11 68 33 282 277 291 320 321 284 279 295 287 276
199 206 210 225 228 228 226 227 230 233 232 233 232 222 190 185 215 285 299 306 311 314 316 315 344 19 83 246 273 325 321 272 282 221 308 130 75 39 344 317 336 308 310 316 247 238 233
152 163 175 227 237 234 232 230 230 231 232 224 183 164 166 162 228 305 309 311 308 304 302 297 0 67 253 252 295 290 207 276 237 252 220 230 137 122 195 309 6 348 54 299 286 157 291
128 123 125 118 123 152 168 174 118 104 103 107 116 130 144 123 53 335 315 311 300 291 259 260 91 117 267 299 282 274 177 208 164 155 249 85 106 140 40 85 3 359 250 223 310 204 170
126 129 131 124 126 127 122 124 127 132 136 137 139 141 126 73 352 332 320 318 12 85 117 155 28 0 268 251 267 308 195 180 159 107 81 75 47 96 76 114 228 226 241 250 242 245 100
151 138 136 139 141 138 141 135 144 153 153 158 162 159 170 173 307 337 340 32 346 330 216 205 180 262 273 286 304 151 190 121 108 82 168 153 126 220 199 198 164 161 214 271 260 259 341
171 164 169 159 171 165 164 163 158 164 165 166 157 157 161 273 348 325 339 93 108 193 298 245 257 244 263 17 331 243 166 181 156 196 152 105 224 239 179 197 212 232 250 266 295 268 183
234 202 193 185 194 197 191 177 179 179 176 169 167 163 158 25 320 324 106 234 355 130 268 271 212 228 232 175 229 229 160 196 183 169 196 199 205 74 186 172 202 230 206 219 224 317 298
231 247 250 248 205 208 204 183 179 189 187 170 163 150 163 137 294 298 154 287 335 130 318 276 239 254 183 161 273 210 186 169 223 201 193 239 222 237 164 204 187 244 204 215 241 167 240
224 233 250 281 228 227 214 193 180 186 187 188 180 178 176 122 100 300 10 318 306 33 320 196 201 140 155 180 283 49 148 232 210 190 144 221 185 198 231 230 178 231 195 195 199 189 19
66 197 202 279 328 279 248 198 182 187 189 191 189 179 165 158 176 239 333 325 6 77 252 270 157 187 155 226 296 92 129 139 173 239 271 216 157 164 197 163 174 53 77 60 63 109 245
67 60 51 199 262 350 257 231 206 188 195 195 190 177 165 176 169 333 15 63 71 195 154 226 207 181 208 189 197 157 158 173 176 154 244 289 251 210 196 299 301 156 99 267 263 172 242
78 71 60 60 51 26 323 11 211 215 208 199 192 179 206 205 88 353 39 52 208 214 279 15 360 198 192 173 225 181 145 180 212 132 64 201 307 183 205 212 191 203 180 191 197 193 236
83 73 62 48 47 47 37 347 340 337 217 223 173 156 160 227 215 2 88 200 224 213 332 353 317 275 221 211 212 180 216 193 187 173 182 201 267 235 156 196 167 205 203 230 290 137 78
95 80 64 53 39 19 20 11 280 330 328 167 133 164 199 159 160 105 142 235 221 232 14 355 283 42 341 355 195 191 202 347 210 189 178 204 291 264 286 131 252 189 161 129 256 225 241
36 40 50 42 37 28 14 342 340 307 293 293 139 168 199 141 131 160 208 215 248 260 352 290 350 329 352 18 327 317 359 26 2 359 161 124 165 257 50 62 177 156 203 203 148 186 239
327 333 344 344 347 6 357 5 314 29 73 171 305 159 264 135 177 215 214 190 238 252 124 226 228 229 205 10 352 354 2 18 352 328 38 7 97 281 218 45 47 70 28 40 214 231 272
297 290 302 314 314 322 348 356 9 355 106 12 146 224 257 219 194 214 217 208 321 253 209 201 219 225 218 119 344 348 8 355 28 21 66 346 39 345 35 231 44 30 9 15 337 13 224
272 277 282 283 284 301 307 319 327 331 183 102 144 298 283 259 304 203 200 198 215 214 265 315 293 126 131 145 118 314 338 341 28 50 40 30 147 247 309 17 217 301 322 341 6 359 345
254 262 266 273 275 275 281 285 298 339 226 96 129 223 173 204 241 226 199 181 199 214 210 190 253 194 150 164 217 208 221 252 292 292 88 60 303 278 285 215 316 317 308 279 220 228 232
255 249 253 258 261 264 259 258 255 223 158 161 167 214 196 275 278 198 206 192 205 210 167 220 221 191 215 228 216 217 199 212 200 236 225 180 249 255 255 261 277 275 263 256 265 255 221
261 262 254 253 259 254 251 243 243 229 172 139 152 121 199 289 306 224 225 225 220 189 224 229 215 179 177 220 199 242 258 257 231 192 181 165 183 178 258 239 261 223 231 235 243 247 229
252 253 255 255 250 251 251 251 230 234 205 146 214 134 206 259 211 253 307 240 228 255 237 231 221 191 205 88 131 244 226 242 232 208 168 165 183 167 246 97 241 258 262 216 224 239 248
253 249 246 245 247 248 244 244 238 229 219 191 162 170 185 252 250 278 265 252 266 280 259 259 222 248 51 138 105 194 327 302 227 223 204 198 154 206 224 230 311 298 233 197 186 262 250
249 248 247 245 245 247 246 241 237 232 225 176 183 165 183 206 231 232 278 300 245 232 207 214 287 355 99 171 176 186 200 173 203 234 230 116 106 186 160 203 232 255 224 126 101 283 251
247 246 243 242 242 238 243 239 234 231 228 205 222 189 211 248 208 182 216 223 201 205 236 192 187 180 174 191 211 176 218 177 204 189 163 154 140 206 218 217 262 246 182 146 191 265 182
238 241 241 235 237 242 234 233 228 225 228 203 222 196 215 244 258 237 234 235 247 230 230 214 115 151 158 196 188 189 184 201 181 180 172 166 169 191 101 114 277 186 94 194 220 216 210
237 236 236 233 221 234 230 224 223 223 224 207 223 210 234 239 269 296 242 237 233 247 208 210 185 149 237 155 209 140 164 119 156 222 141 220 185 183 180 207 231 226 217 208 144 229 263